Location: Bern�tre
(50.1974°N, 2.0915°E)
Time: 02:39:29
(UTC+00:00)

Okean 2 Rocket - Pass Details

Date: 18 September 2020
Orbit: 616 x 642 km, 82.5° (Epoch: 24 October)

Event Time Altitude Azimuth Distance (km) Brightness Sun altitude
Rises 19:41:02 0° 192° (SSW) 2,934 6.4 -16.8°
Reaches altitude 10° 19:43:16 10° 194° (SSW) 2,027 5.6 -17.2°
Maximum altitude 19:47:47 76° 281° (W) 662 3.2 -17.8°
Drops below altitude 10° 19:52:17 10° 7° (N) 2,029 5.9 -18.5°
Sets 19:54:32 0° 9° (N) 2,938 6.8 -18.8°
